Location: Allos
(44.2333°N, 6.6333°E)
Time: 23:00:52
(UTC+00:00)

Cosmos 1821 Rocket - Pass Details

Date: 24 April 2021
Orbit: 946 x 1003 km, 82.9° (Epoch: 16 May)

Event Time Altitude Azimuth Distance (km) Brightness Sun altitude
Rises 02:30:32 0° 342° (NNW) 3,715 7.4 -19.9°
Reaches altitude 10° 02:33:22 10° 331° (NNW) 2,769 6.5 -19.5°
Maximum altitude 02:38:39 29° 275° (W) 1,758 5.0 -18.8°
Enters shadow 02:39:56 27° 255° (WSW) 1,832 4.9 -18.7°
